Location: Oberwangen
(47.4286°N, 8.9679°E)
Time: 08:59:52
(UTC+00:00)

Cosmos 1447 Rocket - Pass Details

Date: 01 November 2021
Orbit: 953 x 996 km, 82.9° (Epoch: 27 November)

Event Time Altitude Azimuth Distance (km) Brightness Sun altitude
Rises 16:54:59 0° 353° (N) 3,643 7.4 -8.6°
Reaches altitude 10° 16:57:31 10° 356° (N) 2,694 6.7 -9.0°
Maximum altitude 17:03:38 65° 78° (ENE) 1,052 4.4 -10.1°
Drops below altitude 10° 17:09:45 10° 160° (SSE) 2,691 6.7 -11.1°
Sets 17:12:16 0° 164° (SSE) 3,639 7.4 -11.5°
